Humidity-temperature Sensor

Selected Measurement Type: Relative Humidity

 
Relative Humidity [%]     6 entries per hour
Showing data from 3/6/2016 (00:00:00 Z) to 3/3/2016 (00:01:00 Z)
Previous Next [ Day | 3-Days | 7-Days ]
First Last
Prev [ Day | 3-Days | 7-Days ] Next
First Last

Start Time:     :
End Time:     :     
Time (in GMT) :00 :50 :40 :30 :20 :10
Previous Next [ Day | 3-Days | 7-Days ]
First Last
Prev [ Day | 3-Days | 7-Days ] Next
First Last


123 => good data
MM => data is determined as missing
-- => data not received/configured
Back to Top Back to Top
3/6/2016 00:00 to 23:10 86.25 88.54 88.03 87.25 86.04 86.31
3/5/2016 23:00 to 22:10 86.61 87.31 86.33 85.76 85.76 84.17
3/5/2016 22:00 to 21:10 84.41 86.38 88.94 88.75 89.15 88.73
3/5/2016 21:00 to 20:10 88.73 88.56 88.45 88.73 87.94 87.69
3/5/2016 20:00 to 19:10 88.12 87.67 87.10 86.53 87.61 86.82
3/5/2016 19:00 to 18:10 86.44 88.98 87.31 86.89 87.01 85.76
3/5/2016 18:00 to 17:10 88.07 89.11 89.30 89.81 89.96 91.34
3/5/2016 17:00 to 16:10 90.11 87.01 86.12 85.85 86.70 86.48
3/5/2016 16:00 to 15:10 87.54 87.75 87.35 86.53 86.00 87.25
3/5/2016 15:00 to 14:10 86.25 87.03 89.47 89.11 88.01 87.50
3/5/2016 14:00 to 13:10 87.33 86.44 85.80 87.33 88.69 89.49
3/5/2016 13:00 to 12:10 90.21 90.38 91.08 91.57 91.52 91.84
3/5/2016 12:00 to 11:10 91.67 91.14 90.95 90.80 89.68 90.81
3/5/2016 11:00 to 10:10 91.76 91.80 91.42 86.74 86.99 87.31
3/5/2016 10:00 to 9:10 86.38 85.89 85.47 85.66 85.26 85.25
3/5/2016 09:00 to 8:10 84.87 85.36 85.08 86.63 87.59 87.80
3/5/2016 08:00 to 7:10 87.29 87.94 87.29 87.37 88.54 88.69
3/5/2016 07:00 to 6:10 88.24 87.58 87.78 88.05 88.07 88.24
3/5/2016 06:00 to 5:10 86.82 86.48 86.19 85.57 85.21 86.63
3/5/2016 05:00 to 4:10 86.55 86.84 87.10 86.69 87.27 86.78
3/5/2016 04:00 to 3:10 85.23 85.34 85.04 85.11 85.83 85.74
3/5/2016 03:00 to 2:10 87.84 87.42 87.06 87.33 87.14 86.84
3/5/2016 02:00 to 1:10 86.31 85.28 84.72 85.38 84.39 85.83
3/5/2016 01:00 to 0:10 85.28 84.73 84.77 85.85 86.04 86.34
3/5/2016 00:00 to 23:10 85.76 84.98 84.73 84.36 85.66 85.09
3/4/2016 23:00 to 22:10 84.22 83.81 83.22 84.24 83.84 84.56
3/4/2016 22:00 to 21:10 83.90 84.43 83.75 83.43 83.79 85.44
3/4/2016 21:00 to 20:10 85.25 86.12 87.58 86.38 86.95 86.19
3/4/2016 20:00 to 19:10 87.06 86.61 86.34 86.00 84.94 85.17
3/4/2016 19:00 to 18:10 85.30 85.40 85.15 83.47 85.59 87.06
3/4/2016 18:00 to 17:10 87.52 87.29 88.12 89.00 88.37 87.97
3/4/2016 17:00 to 16:10 88.75 88.71 88.09 88.05 87.82 88.71
3/4/2016 16:00 to 15:10 88.96 89.03 89.96 89.91 89.85 89.73
3/4/2016 15:00 to 14:10 90.42 90.80 89.73 89.38 89.62 90.15
3/4/2016 14:00 to 13:10 89.24 90.32 89.83 89.66 90.00 89.79
3/4/2016 13:00 to 12:10 89.83 89.89 89.47 89.11 89.26 88.98
3/4/2016 12:00 to 11:10 89.02 88.77 88.86 88.52 88.86 88.31
3/4/2016 11:00 to 10:10 88.67 87.65 87.27 88.20 88.16 88.05
3/4/2016 10:00 to 9:10 88.28 87.42 87.18 87.08 86.84 86.84
3/4/2016 09:00 to 8:10 88.24 88.62 88.54 88.48 89.03 89.45
3/4/2016 08:00 to 7:10 89.68 90.06 89.98 88.86 88.54 88.58
3/4/2016 07:00 to 6:10 88.45 88.33 88.64 88.03 88.22 87.78
3/4/2016 06:00 to 5:10 87.63 86.42 85.66 85.23 86.17 86.23
3/4/2016 05:00 to 4:10 86.93 87.52 88.31 87.90 87.65 86.97
3/4/2016 04:00 to 3:10 86.57 85.85 85.78 86.59 85.95 87.48
3/4/2016 03:00 to 2:10 87.35 88.11 88.43 88.67 88.62 89.09
3/4/2016 02:00 to 1:10 88.75 89.32 88.41 88.56 89.49 90.13
3/4/2016 01:00 to 0:10 89.41 88.67 88.52 88.47 87.67 87.27
3/4/2016 00:00 to 23:10 87.23 87.65 87.29 87.82 87.95 88.18
3/3/2016 23:00 to 22:10 87.18 87.16 87.44 86.82 88.11 88.41
3/3/2016 22:00 to 21:10 89.81 89.85 89.53 88.62 87.99 85.78
3/3/2016 21:00 to 20:10 85.02 85.47 85.68 85.40 84.20 83.67
3/3/2016 20:00 to 19:10 83.60 83.26 83.64 84.49 84.73 84.56
3/3/2016 19:00 to 18:10 86.02 85.00 87.25 87.97 87.44 86.97
3/3/2016 18:00 to 17:10 87.90 89.32 89.62 89.81 90.83 91.31
3/3/2016 17:00 to 16:10 91.21 89.53 90.40 90.91 91.00 92.71
3/3/2016 16:00 to 15:10 93.11 93.49 92.80 92.73 93.92 94.00
3/3/2016 15:00 to 14:10 94.62 95.72 94.53 93.52 93.45 93.26
3/3/2016 14:00 to 13:10 93.26 93.20 93.07 92.69 92.27 92.27
3/3/2016 13:00 to 12:10 93.33 93.13 93.88 93.69 96.14 97.39
3/3/2016 12:00 to 11:10 98.90 98.58 99.04 98.66 98.09 96.27
3/3/2016 11:00 to 10:10 96.93 97.52 96.78 96.63 97.63 97.24
3/3/2016 10:00 to 9:10 94.60 94.55 95.11 93.79 93.81 95.40
3/3/2016 09:00 to 8:10 94.17 92.48 91.76 91.72 91.99 92.03
3/3/2016 08:00 to 7:10 90.99 90.61 90.80 90.23 88.64 88.71
3/3/2016 07:00 to 6:10 89.47 88.88 88.71 88.50 88.43 89.07
3/3/2016 06:00 to 5:10 89.41 89.26 89.30 89.09 88.33 87.84
3/3/2016 05:00 to 4:10 87.97 88.90 88.28 88.28 87.99 88.05
3/3/2016 04:00 to 3:10 88.09 88.07 87.84 88.62 89.09 93.56
3/3/2016 03:00 to 2:10 93.47 93.98 93.45 94.11 95.46 94.21
3/3/2016 02:00 to 1:10 90.44 81.74 81.02 81.29 81.38 82.35
3/3/2016 01:00 to 0:10 82.35 82.75 82.86 83.62 83.88 84.60